Weather History for Penn Yan, NY

Change the Weather History Date:

Friday, September 27, 2013

  Actual Average (KITH) Record (KITH)
Temperature  
Mean Temperature 58 °F -  
Max Temperature 71 °F 66 °F 82 °F (1970)
Min Temperature 45 °F 46 °F 27 °F (1947)
Degree Days  
Heating Degree Days 8    
Growing Degree Days 8 (Base 50)    
Moisture  
Dew Point 49 °F    
Average Humidity 84    
Maximum Humidity 100    
Minimum Humidity 53    
Precipitation  
Precipitation 0.00 in - - ()
Sea Level Pressure  
Sea Level Pressure 30.23 in    
Wind  
Wind Speed 2 mph (SSW)    
Max Wind Speed 6 mph    
Max Gust Speed -    
Visibility 7 miles    
Events Fog    
Averages and records for this station are not official NWS values.
T = Trace of Precipitation, MM = Missing Value Source: NWS Daily Summary

Daily Weather History Graph

Daily Weather History Graph

Search for Another Location

Airport:

Trip Planner

Search our weather history database for the weather conditions in past years. The results will help you decide how hot, cold, wet, or windy it might be!

Date:

Astronomy

Sep. 27, 2013 Rise Set
Actual Time 7:01 AM EDT 6:56 PM EDT
Civil Twilight 6:33 AM EDT 7:24 PM EDT
Nautical Twilight 6:00 AM EDT 7:57 PM EDT
Astronomical Twilight 5:26 AM EDT 8:30 PM EDT
Moon No Moon Rise 2:40 PM EDT (9/27)
Length of Visible Light 12h 51m
Length of Day
11h 54m
Last Quarter, 45% of the Moon is Illuminated
Sep 27
Last Quarter
Oct 4
New
Oct 11
First Quarter
Oct 18
Full
Oct 26
Last Quarter

Hourly Weather History & Observations

Time (EDT) Temp. Windchill Dew Point Humidity Pressure Visibility Wind Dir Wind Speed Gust Speed Precip Events Conditions
12:53 AM 46.0 °F - 43.0 °F 89% 30.17 in 10.0 mi Calm Calm - N/A   Clear
1:53 AM 46.0 °F 43.9 °F 44.1 °F 93% 30.17 in 10.0 mi South 4.6 mph - N/A   Clear
2:53 AM 46.0 °F - 44.1 °F 93% 30.17 in 8.0 mi Calm Calm - N/A   Clear
3:53 AM 45.0 °F 43.5 °F 44.1 °F 97% 30.17 in 2.5 mi South 3.5 mph - N/A   Clear
4:01 AM 46.4 °F 45.2 °F 44.6 °F 93% 30.18 in 2.0 mi South 3.5 mph - N/A   Clear
4:03 AM 46.4 °F 45.2 °F 44.6 °F 93% 30.18 in 3.0 mi South 3.5 mph - N/A   Clear
4:53 AM 46.0 °F - 45.0 °F 96% 30.19 in 1.2 mi Calm Calm - N/A   Scattered Clouds
4:55 AM 46.4 °F - 44.6 °F 93% 30.19 in 0.8 mi Calm Calm - N/A   Mist
5:53 AM 48.9 °F - 48.0 °F 97% 30.21 in 0.2 mi Calm Calm - N/A Fog Fog
6:53 AM 48.9 °F - 48.0 °F 97% 30.23 in 0.2 mi SSW 3.5 mph - N/A Fog Fog
7:53 AM 50.0 °F - 48.9 °F 96% 30.25 in 0.2 mi SW 3.5 mph - N/A Fog Fog
8:25 AM 50.0 °F - 48.2 °F 94% 30.24 in 1.5 mi SSW 4.6 mph - N/A   Overcast
8:29 AM 50.0 °F - 48.2 °F 94% 30.24 in 2.5 mi SSW 3.5 mph - N/A   Overcast
8:37 AM 50.0 °F - 50.0 °F 100% 30.24 in 4.0 mi Calm Calm - N/A   Overcast
8:53 AM 52.0 °F - 51.1 °F 97% 30.25 in 6.0 mi SSW 4.6 mph - N/A   Overcast
9:12 AM 51.8 °F - 51.8 °F 100% 30.25 in 10.0 mi SW 4.6 mph - N/A   Scattered Clouds
9:53 AM 57.0 °F - 52.0 °F 83% 30.27 in 10.0 mi Calm Calm - N/A   Clear
10:53 AM 60.1 °F - 53.1 °F 78% 30.27 in 10.0 mi SW 3.5 mph - N/A   Partly Cloudy
11:53 AM 64.0 °F - 53.1 °F 67% 30.27 in 10.0 mi Variable 3.5 mph - N/A   Clear
12:29 PM 66.2 °F - 51.8 °F 60% 30.26 in 10.0 mi NW 4.6 mph - N/A   Mostly Cloudy
12:53 PM 64.9 °F - 51.1 °F 61% 30.26 in 10.0 mi Calm Calm - N/A   Scattered Clouds
1:53 PM 70.0 °F - 52.0 °F 53% 30.24 in 10.0 mi Variable 5.8 mph - N/A   Partly Cloudy
2:53 PM 66.9 °F - 54.0 °F 63% 30.24 in 10.0 mi ESE 4.6 mph - N/A   Clear
3:53 PM 69.1 °F - 53.1 °F 57% 30.23 in 10.0 mi Variable 4.6 mph - N/A   Partly Cloudy
4:53 PM 68.0 °F - 52.0 °F 56% 30.23 in 10.0 mi Variable 3.5 mph - N/A   Scattered Clouds
5:53 PM 66.9 °F - 52.0 °F 59% 30.23 in 10.0 mi Variable 4.6 mph - N/A   Partly Cloudy
6:53 PM 61.0 °F - 54.0 °F 78% 30.25 in 10.0 mi Calm Calm - N/A   Clear
7:53 PM 57.0 °F - 53.1 °F 87% 30.25 in 10.0 mi Calm Calm - N/A   Clear
8:53 PM 54.0 °F - 51.1 °F 90% 30.27 in 10.0 mi Calm Calm - N/A   Clear
9:53 PM 48.9 °F - 46.9 °F 93% 30.28 in 8.0 mi SE 3.5 mph - N/A   Clear
10:53 PM 48.0 °F - 46.0 °F 93% 30.28 in 7.0 mi Calm Calm - N/A   Clear
11:53 PM 46.0 °F - 45.0 °F 96% 30.28 in 5.0 mi Calm Calm - N/A   Clear